This demonstration page uses our WeatherBlox Daily Observations layout. Learn more.

Left ArrowRight Arrow

Hourly Observations for July 5, 2018

Temp ( °F °C ) Dew Point ( °F °C ) Humidity (%) Winds ( mph kmh ) Pressure ( in mb ) Visibility ( mi km ) Precip ( " mm )
12:53 am 00:53 Cloudy 72 22.2 62 16.7 71 71 E 15 24 30.27 1025 10 16 0.00 0.00
1:16 am 01:16 Cloudy with Nearby Thunderstorms 72 22 63 17 73 73 NNE 15 24 30.27 1025 10 16 0.00 0.00
1:30 am 01:30 Windy with Storms Likely 70 21 64 18 83 83 NNE 20 31 30.30 1026 9 14 0.00 0.00
1:44 am 01:44 Cloudy with Strong Thunderstorms 67 19.4 65 18.3 93 93 ENE 15 24 30.33 1027 2 3 0.31 7.87
1:51 am 01:51 Cloudy with Strong Thunderstorms 66 19 64 18 94 94 NE 14 22 30.33 1027 2 2 0.00 0.00
1:52 am 01:52 Cloudy with Strong Thunderstorms 66 18.9 65 18.3 96 96 NE 14 22 30.35 1028 2 2 0.44 11.18
1:59 am 01:59 Cloudy with Thunderstorms 66 18.9 66 18.9 100 100 ENE 13 20 30.33 1027 3 5 0.01 0.25
2:20 am 02:20 Cloudy with Nearby Thunderstorms 66 19 64 18 94 94 ENE 18 30 30.33 1027 10 16 0.00 0.00
2:29 am 02:29 Cloudy with Light Rain 66 18.9 64 17.8 93 93 ENE 16 26 30.33 1027 10 16 0.02 0.51
2:53 am 02:53 Cloudy with Light Rain 65 18.3 63 17.2 93 93 ENE 14 22 30.36 1028 10 16 0.03 0.76
3:27 am 03:27 Cloudy with Nearby Thunderstorms 64 18 63 17 94 94 NE 15 24 30.33 1027 10 16 0.00 0.00
3:43 am 03:43 Cloudy with Light Rain 64 17.8 63 17.2 96 96 ENE 13 20 30.39 1029 10 16 0.04 1.02
3:53 am 03:53 Cloudy with Nearby Thunderstorms 64 17.8 63 17.2 96 96 NE 8 13 30.36 1028 10 16 0.04 1.02
4:10 am 04:10 Cloudy with Thunderstorms 64 18 63 17 94 94 NNW 6 9 30.36 1028 10 16 0.00 0.00
4:32 am 04:32 Cloudy with Strong Thunderstorms 64 18 63 17 94 94 NNE 20 31 30.33 1027 3 4 0.00 0.00
4:39 am 04:39 Cloudy with Thunderstorms 65 18.3 63 17.2 93 93 NNE 14 22 30.36 1028 5 8 0.22 5.59
4:53 am 04:53 Cloudy with Thunderstorms 65 18.3 62 16.7 90 90 NE 13 20 30.35 1028 8 13 0.24 6.10
5:18 am 05:18 Mostly Cloudy with Nearby Thunderstorms 64 18 63 17 94 94 ENE 7 11 30.33 1027 10 16 0.00 0.00
5:25 am 05:25 Mostly Cloudy with Light Rain 66 18.9 62 16.7 87 87 E 7 11 30.33 1027 10 16 0.03 0.76
5:53 am 05:53 Mostly Cloudy with Light Rain 66 18.9 63 17.2 90 90 S 7 11 30.29 1026 10 16 0.04 1.02
6:53 am 06:53 Mostly Cloudy with Light Rain 66 18.9 62 16.7 87 87 SE 10 17 30.26 1025 10 16 0.01 0.25
7:50 am 07:50 Partly Cloudy with Light Rain 68 20 61 16 78 78 NE 10 17 30.30 1026 10 16 0.00 0.00
7:53 am 07:53 Partly Cloudy with Light Rain 67 19.4 61 16.1 81 81 ENE 9 15 30.31 1026 10 16 0.02 0.51
8:53 am 08:53 Sunny 70 21.1 65 18.3 84 84 N 12 19 30.34 1027 10 16 0.00 0.03
9:53 am 09:53 Sunny 73 22.8 64 17.8 74 74 N 12 19 30.38 1029 10 16 0.00 0.00
10:53 am 10:53 Sunny 77 25 67 19.4 71 71 NE 10 17 30.40 1029 10 16 0.00 0.00
11:53 am 11:53 Sunny 77 25 67 19.4 71 71 NNE 7 11 30.41 1030 10 16 0.00 0.00
12:53 pm 12:53 Sunny 78 25.6 66 18.9 67 67 NE 13 20 30.41 1030 10 16 0.00 0.00
1:53 pm 13:53 Mostly Sunny 80 26.7 68 20 67 67 NE 13 20 30.41 1030 10 16 0.00 0.00
2:53 pm 14:53 Mostly Sunny 80 26.7 68 20 67 67 E 13 20 30.40 1029 10 16 0.00 0.00
3:53 pm 15:53 Mostly Sunny 80 26.7 67 19.4 64 64 E 9 15 30.39 1029 10 16 0.00 0.00
4:53 pm 16:53 Mostly Sunny 80 26.7 67 19.4 64 64 ENE 12 19 30.39 1029 10 16 0.00 0.00
5:53 pm 17:53 Sunny 79 26.1 68 20 69 69 E 9 15 30.38 1029 10 16 0.00 0.00
6:53 pm 18:53 Sunny 79 26.1 68 20 69 69 E 10 17 30.37 1028 10 16 0.00 0.00
7:53 pm 19:53 Sunny 78 25.6 70 21.1 76 76 E 9 15 30.37 1029 10 16 0.00 0.00
8:53 pm 20:53 Sunny 76 24.4 71 21.7 85 85 NE 5 7 30.38 1029 10 16 0.00 0.00
9:53 pm 21:53 Clear 73 22.8 71 21.7 94 94 NE 3 6 30.40 1029 10 16 0.00 0.00
10:53 pm 22:53 Clear 72 22.2 70 21.1 94 94 Calm 30.41 1030 10 16 0.00 0.00
11:53 pm 23:53 Clear 72 22.2 69 20.6 91 91 NNE 3 6 30.41 1030 10 16 0.00 0.00

Powered by AerisWeather